Location: Eastlake (historical)
(39.0077°N, 122.6678°W)
Time: 12:44:59
(UTC+00:00)

CZ-4B R/B - Pass Details

Date: 25 November 2020
Orbit: 809 x 881 km, 99.1° (Epoch: 25 January)

Event Time Altitude Azimuth Distance (km) Brightness Sun altitude
Rises 14:25:08 0° 15° (NNE) 3,348 6.3 -8.0°
Reaches altitude 10° 14:27:28 10° 18° (NNE) 2,419 5.6 -7.5°
Maximum altitude 14:32:49 74° 103° (ESE) 861 3.5 -6.6°
Drops below altitude 10° 14:38:13 10° 189° (S) 2,443 5.8 -5.6°
Sets 14:40:36 0° 191° (S) 3,384 6.5 -5.2°
